Regional Weather Roundup
Issued by NWS Newport/Morehead, NC

Home | Current Version | Previous Version | Text Only | Print | Product List | Glossary On
Versions: 1 2 3 4 5 6 7 8 9 10 11 12 13 14 15 16 17 18 19 20 21 22 23 24 25 26 27 28 29 30 31 32 33 34 35 36 37 38 39 40 41 42 43 44 45 46 47 48 49 50
000
ASUS42 KMHX 291626
RWRMHX
WEATHER ROUNDUP FOR EASTERN NORTH CAROLINA
NATIONAL WEATHER SERVICE NEWPORT/MOREHEAD CITY NC
1200 PM EDT THU JUN 29 2017

NOTE: "FAIR" INDICATES FEW OR NO CLOUDS BELOW 12,000 FEET
WITH NO SIGNIFICANT WEATHER AND/OR OBSTRUCTIONS TO VISIBILITY

NCZ015>017-031-032-045>047-102-103-291700-
NORTH COAST

CITY           SKY/WX    TMP DP  RH WIND       PRES   REMARKS
EDENTON        MOSUNNY   82  62  49 CALM      30.24S
ELIZABETH CITY SUNNY     82  62  50 S7        30.23S
KITTY HAWK     SUNNY     80  56  43 SE8       30.23S
MANTEO         SUNNY     80  61  51 SW8       30.24S

$$

NCZ045>047-081-094-103-104-291700-
CENTRAL COAST

CITY           SKY/WX    TMP DP  RH WIND       PRES   REMARKS
FRISCO         NOT AVBL

$$

NCZ095-097-098-100-101-291700-
SOUTHERN COAST

CITY           SKY/WX    TMP DP  RH WIND       PRES   REMARKS
BEAUFORT       MOSUNNY   83  70  64 E7        30.22F
CEDAR ISLAND   NOT AVBL
JACKSONVILLE   MOSUNNY   82  64  54 S7        30.21F
PINEY ISLAND   MOSUNNY  N/A N/A N/A VRB5      30.22F
WILMINGTON     SUNNY     83  65  54 E7        30.22S


$$

NCZ011>013-027>030-043-044-078>080-089-090>093-098-291700-
COASTAL PLAIN

CITY           SKY/WX    TMP DP  RH WIND       PRES   REMARKS
AHOSKIE          N/A     81  56  43 S6        30.22F
CLINTON        SUNNY     84  60  44 CALM      30.23S
ELIZABETHTOWN  NOT AVBL
GOLDSBORO      SUNNY     83  54  36 SE3       30.21S
GREENVILLE     SUNNY     82  57  42 S3        30.24S
HAVELOCK       MOSUNNY   85  63  47 E6        30.23F
KENANSVILLE    SUNNY     82  59  44 SE5       30.23S
KINSTON        SUNNY     82  57  42 SE5       30.24S
NEW BERN       SUNNY     84  60  44 E5        30.23F
RICHLANDS      SUNNY     84  59  42 E6        30.23S
ROCKY MOUNT    SUNNY     83  59  44 VRB7      30.23S
WASHINGTON     SUNNY    N/A N/A N/A SE6       30.23F
WHITEVILLE     SUNNY     84  56  38 E8        30.21F

$$

AMZ130-135-150-152-154-156-158-170-250-252-270-ANZ085-086-088-633-658-670-291700-
MARINE OBSERVATIONS

STATION/POSITION TIME  TEMP    WIND        PRES    WAVE   SWELL
                       AIR SEA DIR/SP/G            HT/PER HT/PER
                 (UTC) (F)     (DEG/KT/KT) (MB)    (FT/S) (FT/S)
CHESAPEAKE LIGHT NOT AVBL
64 E VA BEACH    1550   75 74  180/ 10/ 10 1024.4    1/ 8   2/ 8
DUCK             1600   76 71  140/ 10/ 12 1023.5
2 E DUCK         NOT AVBL
OREGON INLET     1600   78 77  100/ 10/ 12 1024.0
13E OREGON INLT  1548      75                N/A     1/ 7   2/ 7
HATTERAS CG      1600   79 77  140/  8/ 10 1024.0
DIAMOND BUOY     1550   79 83  120/ 12/ 14 1023.9    2/ 7   2/ 7
CAPE LOOKOUT     1600   79     120/ 10/ 11 1023.2
BEAUFORT LAB     1600   80 78  120/  9/  9 1022.8
30 SE NEW RVR IN 1608   80 81  120/  6/  8 1023.4
30 SE NEW RVR IN 1543      81                N/A     2/ 7
27 SE WRIGHTSVLE 1608   80 80  120/  6/ 10 1023.2
5 SE WRIGHTSVLE  1608   78 80   90/  6/ 12 1023.1
225 S CAPE HAT   1550   78 80   80/ 19/ 21 1022.3    3/ 5   2/ 7
41 SE CHARLESTON 1610   81 81   90/ 14/ 16 1022.0

$$



USA.gov is the U.S. government's official web portal to all federal, state and local government web resources and services.